749  
ASUS44 KLCH 280810  
RWRLCH  
REGIONAL WEATHER ROUNDUP  
NATIONAL WEATHER SERVICE LAKE CHARLES LA  
300 AM CDT SUN MAY 28 2017  
 
NOTE: "FAIR" INDICATES FEW OR NO CLOUDS BELOW 12,000 FEET WITH NO  
SIGNIFICANT WEATHER AND/OR S TO VISIBILITY
.  
 
ACROSS SOUTHEAST TEXAS  
 
CITY SKY/WX TMP DP RH WIND PRES REMARKS
 
BEAUMONT CLOUDY 80 75 84 SW8 29.88R  
BEAUMONT CITY CLOUDY 81 75 80 MISG 29.89S  
ORANGE CLOUDY 81 78 91 SW13G20 29.90R  
JASPER MOCLDY 77 76 95 S3 29.90S FOG  

 
 
ACROSS CENTRAL LOUISIANA  
 
CITY SKY/WX TMP DP RH WIND PRES REMARKS
 
LEESVILLE CLOUDY 77 75 94 S6 29.88R  
FULLERTON CLOUDY 78 75 90 VRB5 29.87R  
ALEXANDRIA INT CLOUDY 78 74 87 S8 29.86S  
ESLER FIELD MOCLDY 77 75 93 SW5 29.88R  
DERIDDER CLOUDY 77 75 95 CALM 29.91R  
OAKDALE CLOUDY 79 76 89 S5 29.89R  
OPELOUSAS CLOUDY 77 75 93 S6 29.90S  

 
 
ACROSS SOUTHWEST AND SOUTH CENTRAL LOUISIANA  
 
CITY SKY/WX TMP DP RH WIND PRES REMARKS
 
SULPHUR CLOUDY 81 78 91 S10 29.89R  
LAKE CHARLES CLOUDY 81 77 88 S8 29.88R  
CHENNAULT INT RAIN 80 77 90 S13G20 29.89R  
CAMERON PHI CLOUDY 81 79 94 S17 29.86F FOG  
DEQUINCY CLOUDY 79 76 90 S6 29.88S  
JENNINGS CLOUDY 79 76 92 S7 29.89S  
LAFAYETTE CLOUDY 79 77 94 S9 29.90R  
NEW IBERIA CLOUDY 80 75 84 S10 29.90F  
ABBEVILLE CLOUDY 79 79 100 S9 29.90S  
PATTERSON CLOUDY 79 76 90 S9 29.92F  
SALT POINT N/A 79 76 90 VRB6 29.89F  

 
 
SELECTED SITES ACROSS THE REGION  
 
CITY SKY/WX TMP DP RH WIND PRES REMARKS
 
HOUSTON BUSH CLOUDY 82 74 76 S8 29.86F  
HOUSTON HOBBY CLOUDY 79 75 87 S7 29.85F  
GALVESTON CLOUDY 82 78 88 S16G24 29.87F  
COLLEGE STAT CLOUDY 76 74 93 S13 29.81F  
CONROE CLOUDY 79 74 84 S10 29.86F  
HUNTSVILLE MOCLDY 79 72 79 S12G21 29.85S  
LUFKIN PTCLDY 76 73 91 S7 29.85F  
SHREVEPORT CLOUDY 77 72 84 S14G23 29.80F  
MONROE CLOUDY 76 72 87 S3 29.87R  
NATCHEZ MS CLOUDY 78 74 87 S12 29.89F  
BATON ROUGE CLOUDY 79 74 84 S14 29.90F  
N.O. INTL ARPT MOCLDY 77 75 93 S6 29.92F  
SLIDELL CLOUDY 79 75 87 S6 29.92S  

 
 
MARINE REPORTS  
 
STATION/POSITION TIME SKY/WX TEMP WIND PRES VSBY
 
AIR SEA DIR/SP/G  
(UTC) (F) (DEG/KT/KT) (MB) (MI)  
BUOY 30 S HIGH I 0750 80 80 200/ 17/ 21 1011.0F  
WVE H/P(F/S)= 3/ 6  
 
SEA RIM ST PARK 0800 80 210/ 12/ 14 1012.2R  
PORT ARTHUR 0748 80 80 200/ 10/ 15 1011.9R  
SABINE PASS N 0748 80 82 200/ 10/ 16 1013.1R  
TEXAS POINT NOT AVBL  
CALCASIEU PASS 0748 80 80 210/ 18/ 20 N/A  
LK CHARLES BEACH 0748 80 78 1012.3R  
MARSH ISLAND 0700 79 N/A  
FRESH WATER LOCK 0748 80 81 180/ 16/ 22 1012.4F  
AMERADA PASS 0748 78 75 180/ 4/ 10 1012.7F  

 
 
 
CLICK HERE TO GO TO PREVIOUS BULLETINS.

The Nexlab LA Page
The Nexlab TX Page Main Text Page